Weather History for Munising, MI

Change the Weather History Date:

Wednesday, November 7, 2012

  Actual Average (KISQ) Record (KISQ)
Temperature  
Mean Temperature 40 °F -  
Max Temperature 44 °F 43 °F 60 °F (1949)
Min Temperature 37 °F 27 °F 5 °F (1991)
Degree Days  
Heating Degree Days 24    
Moisture  
Dew Point 34 °F    
Average Humidity 78    
Maximum Humidity 89    
Minimum Humidity 63    
Precipitation  
Precipitation 0.00 in - - ()
Sea Level Pressure  
Sea Level Pressure 30.08 in    
Wind  
Wind Speed 5 mph (South)    
Max Wind Speed 10 mph    
Max Gust Speed 16 mph    
Averages and records for this station are not official NWS values.
T = Trace of Precipitation, MM = Missing Value Source: NWS Daily Summary

Daily Weather History Graph

Daily Weather History Graph

Search for Another Location

Airport:

Trip Planner

Search our weather history database for the weather conditions in past years. The results will help you decide how hot, cold, wet, or windy it might be!

Date:

Astronomy

Nov. 07, 2012 Rise Set
Actual Time 7:37 AM EST 5:22 PM EST
Civil Twilight 7:05 AM EST 5:54 PM EST
Nautical Twilight 6:29 AM EST 6:30 PM EST
Astronomical Twilight 5:54 AM EST 7:05 PM EST
Moon 12:06 AM EST (11/7) 1:53 PM EST (11/7)
Length of Visible Light 10h 49m
Length of Day
9h 45m
Last Quarter, 43% of the Moon is Illuminated
Nov 7
Last Quarter
Nov 13
New
Nov 20
First Quarter
Nov 28
Full
Dec 6
Last Quarter

Hourly Weather History & Observations

Time (EST) Temp. Windchill Dew Point Humidity Pressure Visibility Wind Dir Wind Speed Gust Speed Precip Events Conditions
12:56 AM 37.9 °F 34.4 °F 35.1 °F 89% 29.99 in - South 4.6 mph - N/A   Unknown
1:56 AM 37.9 °F 34.4 °F 35.1 °F 89% 30.00 in - Variable 4.6 mph - N/A   Unknown
2:56 AM 37.9 °F - 35.1 °F 89% 30.01 in - Calm Calm - N/A   Unknown
3:56 AM 37.9 °F - 35.1 °F 89% 30.03 in - Calm Calm - N/A   Unknown
4:56 AM 37.9 °F 34.4 °F 34.0 °F 86% 30.03 in - South 4.6 mph - N/A   Unknown
5:56 AM 37.9 °F 33.5 °F 34.0 °F 86% 30.04 in - SSW 5.8 mph - N/A   Unknown
6:56 AM 37.0 °F 31.6 °F 34.0 °F 89% 30.06 in - South 6.9 mph - N/A   Unknown
7:56 AM 37.0 °F 34.5 °F 33.1 °F 86% 30.08 in - South 3.5 mph - N/A   Unknown
8:56 AM 37.9 °F 34.4 °F 33.1 °F 83% 30.09 in - South 4.6 mph - N/A   Unknown
9:56 AM 39.0 °F 34.8 °F 34.0 °F 82% 30.10 in - South 5.8 mph - N/A   Unknown
10:56 AM 42.1 °F 37.1 °F 35.1 °F 76% 30.11 in - South 8.1 mph - N/A   Unknown
11:56 AM 44.1 °F 39.5 °F 35.1 °F 71% 30.10 in - South 8.1 mph - N/A   Unknown
12:56 PM 44.1 °F 40.1 °F 34.0 °F 68% 30.10 in - SSW 6.9 mph - N/A   Unknown
1:56 PM 44.1 °F 38.6 °F 33.1 °F 65% 30.09 in - SSE 10.4 mph 16.1 mph N/A   Unknown
2:56 PM 44.1 °F 40.1 °F 32.0 °F 63% 30.09 in - South 6.9 mph - N/A   Unknown
3:56 PM 43.0 °F 37.7 °F 32.0 °F 65% 30.10 in - South 9.2 mph - N/A   Unknown
4:56 PM 43.0 °F 38.8 °F 32.0 °F 65% 30.10 in - SSE 6.9 mph - N/A   Unknown
5:56 PM 42.1 °F 39.2 °F 32.0 °F 67% 30.12 in - SSE 4.6 mph - N/A   Unknown
6:56 PM 41.0 °F 38.0 °F 32.0 °F 70% 30.13 in - South 4.6 mph - N/A   Unknown
7:56 PM 41.0 °F 38.0 °F 32.0 °F 70% 30.13 in - South 4.6 mph - N/A   Unknown
8:56 PM 41.0 °F 38.0 °F 32.0 °F 70% 30.13 in - SSW 4.6 mph - N/A   Unknown
9:56 PM 39.9 °F 36.7 °F 33.1 °F 77% 30.14 in - SSW 4.6 mph - N/A   Unknown
10:56 PM 39.0 °F - 35.1 °F 86% 30.13 in - Calm Calm - N/A   Unknown
11:56 PM 39.0 °F 36.8 °F 35.1 °F 86% 30.12 in - South 3.5 mph - N/A   Unknown